Location: Arclight Observatory
(36.5667°N, 87.3333°W)
Time: 10:10:40
(UTC-05:00)

Hubble Space Telescope - Visible Passes

Search period start: 30 September 2016 00:00
Search period end: 10 October 2016 00:00
Orbit: 539 x 542 km, 28.5° (Epoch: 30 September)

Date Brightness Start Highest point End Pass type
(mag) Time Alt. Az. Time Alt. Az. Time Alt. Az.
04 Oct 3.4 20:25:10 10° SSW 20:25:29 11° SSW 20:25:29 11° SSW visible
05 Oct 2.9 20:14:54 10° SSW 20:16:23 16° S 20:16:23 16° S visible
06 Oct 2.6 20:04:44 10° SW 20:07:14 20° S 20:07:14 20° S visible
07 Oct 2.3 19:54:39 10° SW 19:57:55 22° S 19:58:02 22° SSE visible
08 Oct 2.2 19:44:38 10° SW 19:48:00 24° S 19:48:47 23° SSE visible
09 Oct 2.2 19:34:40 10° SW 19:38:06 25° S 19:39:30 21° SE visible
